This is the latest recevied weather packets stored in our database for station/object SP2TMT-10. If no packets are shown the sender has not sent any weather packets the latest 10 day(s).
| Time | Temp. | Humidity | Pressure | Rain* | Wind** | Luminosity | Snow |
|---|---|---|---|---|---|---|---|
| 1777695132 | 20.56° C | 44% | 1023.9 hPa | - | - | - | - |
| 1777694232 | 21.11° C | 45% | 1023.9 hPa | - | - | - | - |
| 1777693332 | 21.11° C | 45% | 1024 hPa | - | - | - | - |
| 1777692432 | 20.56° C | 46% | 1024 hPa | - | - | - | - |
| 1777691526 | 21.11° C | 47% | 1024.2 hPa | - | - | - | - |
| 1777690626 | 20.56° C | 45% | 1024.1 hPa | - | - | - | - |
| 1777689726 | 20.56° C | 45% | 1024.2 hPa | - | - | - | - |
| 1777688826 | 20.56° C | 45% | 1024.1 hPa | - | - | - | - |
| 1777673519 | 21.11° C | 51% | 1024.7 hPa | - | - | - | - |
| 1777672619 | 21.11° C | 52% | 1024.7 hPa | - | - | - | - |
| 1777670819 | 21.11° C | 53% | 1024.7 hPa | - | - | - | - |
| 1777669919 | 21.11° C | 54% | 1024.7 hPa | - | - | - | - |
| 1777669019 | 21.11° C | 55% | 1024.7 hPa | - | - | - | - |
| 1777668119 | 21.67° C | 56% | 1024.7 hPa | - | - | - | - |
| 1777667218 | 21.67° C | 58% | 1024.6 hPa | - | - | - | - |
| 1777666318 | 21.67° C | 59% | 1024.6 hPa | - | - | - | - |
| 1777665418 | 21.67° C | 61% | 1024.6 hPa | - | - | - | - |
| 1777663613 | 22.22° C | 66% | 1024.5 hPa | - | - | - | - |
| 1777662713 | 22.22° C | 67% | 1024.5 hPa | - | - | - | - |
| 1777661813 | 22.78° C | 69% | 1024.4 hPa | - | - | - | - |
| 1777660012 | 25.56° C | 65% | 1024.3 hPa | - | - | - | - |
| 1777656412 | 21.67° C | 57% | 1024.2 hPa | - | - | - | - |
| 1777655513 | 21.67° C | 53% | 1024.2 hPa | - | - | - | - |
| 1777654612 | 21.11° C | 55% | 1024.2 hPa | - | - | - | - |
| 1777652812 | 20.56° C | 48% | 1024.4 hPa | - | - | - | - |
* Rain since midnight (hover to see other rain measurements)
** Current wind speed in m/s (hover to see current wind gust speed)